Location: Adaghas
(31.2259°N, 9.0496°W)
Time: 04:08:04
(UTC+00:00)

ATLAS 2AS CENTAUR R/B - Pass Details

Date: 18 September 2020
Orbit: 939 x 1273 km, 63.7° (Epoch: 19 October)

Event Time Altitude Azimuth Distance (km) Brightness Sun altitude
Rises 19:08:24 0° 149° (SSE) 4,130 5.4 -7.4°
Reaches altitude 10° 19:13:56 10° 117° (ESE) 3,226 4.6 -8.6°
Maximum altitude 19:15:53 11° 102° (ESE) 3,158 4.5 -9.0°
Enters shadow 19:16:56 11° 94° (E) 3,189 4.5 -9.2°
